COSMOS 249 DEB, 3923

Orbit data source: Space-Track

COSMOS 249 DEB, 3923 is space debris in LEO originally from a launch on Sun, 20 Oct 1968 UTC launched from the Tyuratam Missile And Space Complex (TTMTR). Debris objects in space refer to the collection of defunct objects orbiting the Earth. Examples of debris include non-operational satellites, rocket bodies, and fragments generated from explosions, collisions, or faulty payload assembly.

Loading next visibility...
Identifier
3923, 1968-091BR
Orbit
LEO
Country
Flag of CISCIS
Related business
Manufacturer
Unknown
Mission
Spacecraft
Bus & Motor
Unknown
Mass
Unknown
Launch date (UTC)
1968-10-20 (58 years ago)
Launch vehicle
Unknown
Launch site
Tyuratam Missile And Space Complex (TTMTR)
Object type
Payload
Rocket body
Debris
Shape & HBR
Unknown shape, 0.1 m
Radar Cross Section
Small (<0.1 m²)

Expand to show TLE details & history
Last TLE update: 1 day ago

TLE from 1 day ago
0 COSMOS 249 DEB
1 03923U 68091BR  26125.56505469  .00001572  00000-0  99190-3 0  9993
2 03923  62.2279 182.0717 0585434 196.5057 161.6165 13.45319039710883
Epoch: 2026-05-05T13:33Z
TLE epoch observation values (Epoch: 2026-05-05T13:33:40.725Z)
Latitude
-0.00006°
Longitude
115.2139°
Altitude
1,508.443 km
Speed
6.91 km/s
True Right ascension
12h 08m 17s
True Declination
0° 00' 00"
Sunlit
Object was in full shadow at epoch
Visualization orbit readout
Latitude
Unknown
Longitude
Unknown
Altitude
Unknown
Speed
Unknown
Apparent Right ascension
Unknown
Apparent Declination
Unknown
Sunlit
N/A
Visualization observer readout
Local Sidereal Time
21:21:46
Azimuth
Unknown
Elevation
Unknown
Doppler factor
Unknown
Orbital elements
Apogee altitude
1,525.624 km
Perigee altitude
651.379 km
Semi-major axis
7,466.639 km
Eccentricity
0.05854
Inclination
62.2279°
RAAN
182.0717°
Arg. of periapsis
196.5057°
True anomaly
163.59413°
Mean anomaly
161.6165°
Eccentric anomaly
162.61853°
Mean motion
3.364 °/min
Orbital period
107.02 mins
BSTAR
0.0009919
Loading maneuver chart data...
Computing Atmospheric mass density...

Documentation

Showing up to 5 results
|